Montauk, NY

3:23 PM EDT on August 27, 2016 (GMT -0400)
Montauk

Weather History for KMTP - November, 2013

Change the Weather History Date:

Monday, November 11, 2013

  Actual Average (KHTO) Record (KHTO)
Temperature  
Mean Temperature 50 °F -  
Max Temperature 54 °F 54 °F 65 °F (1948)
Min Temperature 45 °F 39 °F 21 °F (1956)
Degree Days  
Heating Degree Days 16    
Moisture  
Dew Point 33 °F    
Average Humidity 55    
Maximum Humidity 66    
Minimum Humidity 48    
Precipitation  
Precipitation 0.00 in - - ()
Sea Level Pressure  
Sea Level Pressure 30.07 in    
Wind  
Wind Speed 14 mph (West)    
Max Wind Speed 18 mph    
Max Gust Speed 36 mph    
Averages and records for this station are not official NWS values.
T = Trace of Precipitation, MM = Missing Value Source: NWS Daily Summary

Daily Weather History Graph

Daily Weather History Graph

Search for Another Location

Airport or City:

Trip Planner

Search our weather history database for the weather conditions in past years. The results will help you decide how hot, cold, wet, or windy it might be!

Date:

Astronomy

Nov. 11, 2013 Rise Set
Actual Time 6:30 AM EST 4:32 PM EST
Civil Twilight 6:01 AM EST 5:01 PM EST
Nautical Twilight 5:28 AM EST 5:34 PM EST
Astronomical Twilight 4:56 AM EST 6:06 PM EST
Moon 1:14 PM EST (11/11) 12:09 AM EST (11/11)
Length of Visible Light 10h 59m
Length of Day
10h 01m
Waxing Gibbous, 66% of the Moon is Illuminated
Nov 11
Waxing Gibbous
Nov 17
Full
Nov 25
Last Quarter
Dec 2
New
Dec 9
First Quarter

Hourly Weather History & Observations

Time (EST) Temp. Windchill Dew Point Humidity Pressure Visibility Wind Dir Wind Speed Gust Speed Precip Events Conditions
12:54 AM 50.0 °F - 32.0 °F 50% 29.98 in - West 16.1 mph 28.8 mph N/A   Unknown
1:54 AM 48.9 °F - 30.9 °F 50% 30.00 in - WNW 18.4 mph 26.5 mph N/A   Unknown
2:54 AM 46.9 °F - 30.9 °F 54% 30.04 in - WNW 18.4 mph 35.7 mph N/A   Unknown
3:54 AM 46.0 °F 40.6 °F 32.0 °F 58% 30.07 in - WNW 11.5 mph 26.5 mph N/A   Unknown
4:54 AM 45.0 °F 38.5 °F 28.9 °F 53% 30.10 in - WNW 13.8 mph 34.5 mph N/A   Unknown
5:54 AM 45.0 °F 37.9 °F 28.0 °F 52% 30.12 in - WNW 16.1 mph 25.3 mph N/A   Unknown
6:54 AM 45.0 °F 37.9 °F 28.9 °F 53% 30.14 in - WNW 16.1 mph 26.5 mph N/A   Unknown
7:54 AM 46.0 °F 39.9 °F 30.9 °F 56% 30.16 in - WNW 13.8 mph 21.9 mph N/A   Unknown
8:54 AM 46.0 °F 39.9 °F 28.9 °F 51% 30.17 in - WNW 13.8 mph 23.0 mph N/A   Unknown
9:54 AM 48.0 °F - 30.9 °F 52% 30.17 in - WNW 12.7 mph 20.7 mph N/A   Unknown
10:54 AM 48.0 °F - 30.0 °F 50% 30.14 in - WNW 10.4 mph 17.3 mph N/A   Unknown
11:54 AM 48.9 °F - 30.9 °F 50% 30.13 in - West 9.2 mph - N/A   Unknown
12:54 PM 48.9 °F - 32.0 °F 52% 30.11 in - West 12.7 mph 18.4 mph N/A   Unknown
1:54 PM 50.0 °F - 30.9 °F 48% 30.09 in - WSW 10.4 mph - N/A   Unknown
2:54 PM 51.1 °F - 33.1 °F 50% 30.08 in - SSW 9.2 mph - N/A   Unknown
3:54 PM 50.0 °F - 34.0 °F 54% 30.08 in - SW 10.4 mph 16.1 mph N/A   Unknown
4:54 PM 48.9 °F - 33.1 °F 54% 30.06 in - SW 10.4 mph 18.4 mph N/A   Unknown
5:54 PM 50.0 °F - 36.0 °F 59% 30.05 in - SW 8.1 mph - N/A   Unknown
6:54 PM 52.0 °F - 39.0 °F 61% 30.02 in - SW 11.5 mph 20.7 mph N/A   Unknown
7:54 PM 53.1 °F - 39.9 °F 61% 30.01 in - SW 15.0 mph 26.5 mph N/A   Unknown
8:54 PM 54.0 °F - 41.0 °F 62% 30.01 in - SW 15.0 mph 24.2 mph N/A   Unknown
9:54 PM 53.1 °F - 37.0 °F 55% 30.00 in - WSW 10.4 mph 24.2 mph N/A   Unknown
10:54 PM 53.1 °F - 39.9 °F 61% 29.98 in - SW 10.4 mph 18.4 mph N/A   Unknown
11:54 PM 53.1 °F - 42.1 °F 66% 29.97 in - SW 10.4 mph 18.4 mph N/A   Unknown